CES8100 ZSPD-ZGHA

Flight info

Callsign CES8100
Flight time 1h 18m
Altitude 30100
Route NXD91D NXD W131 AKDIM A470 SAGNU W132 OREXA DCT AVDIP W226 DALEP DAL1W
Aircraft A320/M-SDE3FGHIRWY/LB1

Departure

Time 2026-04-30 12:02
Airport Shanghai Pudong International Airport (ZSPD)

Arrival

Time 2026-04-30 13:20
Airport Changsha Huanghua International Airport (ZGHA)
Time Latitude Longitude Altitude Speed Heading
2026-04-30 11:23 31.14002 121.80276 25 ft 0 kts 252°
2026-04-30 11:49 31.14005 121.80287 26 ft 2 kts 252°
2026-04-30 11:49 31.14010 121.80306 27 ft 2 kts 252°
2026-04-30 11:50 31.14016 121.80325 25 ft 2 kts 252°
2026-04-30 11:50 31.14016 121.80344 26 ft 2 kts 320°
2026-04-30 11:50 31.14011 121.80349 27 ft 0 kts 343°
2026-04-30 11:54 31.14026 121.80347 26 ft 5 kts 354°
2026-04-30 11:54 31.14058 121.80341 23 ft 4 kts 349°
2026-04-30 11:54 31.14082 121.80333 23 ft 5 kts 342°
2026-04-30 11:54 31.14120 121.80318 24 ft 7 kts 342°
2026-04-30 11:55 31.14170 121.80300 23 ft 7 kts 342°
2026-04-30 11:55 31.14193 121.80260 23 ft 9 kts 267°
2026-04-30 11:55 31.14172 121.80189 23 ft 9 kts 251°
2026-04-30 11:55 31.14153 121.80121 23 ft 10 kts 252°
2026-04-30 11:56 31.14130 121.80036 24 ft 11 kts 252°
2026-04-30 11:56 31.14108 121.79956 23 ft 10 kts 252°
2026-04-30 11:56 31.14085 121.79873 23 ft 11 kts 252°
2026-04-30 11:56 31.14061 121.79786 23 ft 13 kts 252°
2026-04-30 11:57 31.14044 121.79687 23 ft 10 kts 258°
2026-04-30 11:57 31.14041 121.79677 23 ft 0 kts 252°
2026-04-30 11:57 31.14041 121.79676 23 ft 1 kts 252°
2026-04-30 11:58 31.14020 121.79632 23 ft 8 kts 221°
2026-04-30 11:58 31.13962 121.79633 23 ft 11 kts 162°
2026-04-30 11:58 31.13873 121.79669 23 ft 16 kts 162°
2026-04-30 11:58 31.13753 121.79713 23 ft 19 kts 162°
2026-04-30 11:59 31.13622 121.79763 23 ft 21 kts 162°
2026-04-30 11:59 31.13480 121.79816 22 ft 22 kts 162°
2026-04-30 11:59 31.13330 121.79874 22 ft 23 kts 162°
2026-04-30 11:59 31.13169 121.79934 22 ft 25 kts 162°
2026-04-30 12:00 31.13019 121.79990 23 ft 14 kts 162°
2026-04-30 12:00 31.12950 121.79998 22 ft 9 kts 214°
2026-04-30 12:00 31.12930 121.79940 22 ft 7 kts 253°
2026-04-30 12:00 31.12917 121.79892 22 ft 6 kts 252°
2026-04-30 12:01 31.12904 121.79844 22 ft 6 kts 258°
2026-04-30 12:01 31.12916 121.79804 23 ft 5 kts 319°
2026-04-30 12:01 31.12943 121.79795 23 ft 5 kts 343°
2026-04-30 12:01 31.13158 121.79715 23 ft 73 kts 342°
2026-04-30 12:02 31.13878 121.79442 22 ft 140 kts 342°
2026-04-30 12:02 31.14968 121.79035 179 ft 180 kts 342°
2026-04-30 12:02 31.16213 121.78606 727 ft 196 kts 341°
2026-04-30 12:02 31.17585 121.78076 1163 ft 219 kts 340°
2026-04-30 12:03 31.19102 121.77447 1565 ft 243 kts 339°
2026-04-30 12:03 31.22436 121.76062 2767 ft 259 kts 340°
2026-04-30 12:03 31.24146 121.75358 2895 ft 260 kts 340°
2026-04-30 12:04 31.25853 121.74659 2905 ft 260 kts 340°
2026-04-30 12:04 31.27560 121.73963 2907 ft 259 kts 340°
2026-04-30 12:04 31.29263 121.73269 2908 ft 259 kts 340°
2026-04-30 12:04 31.30978 121.72570 3064 ft 265 kts 340°
2026-04-30 12:05 31.32622 121.71627 3985 ft 264 kts 320°
2026-04-30 12:05 31.33774 121.69979 4878 ft 265 kts 294°
2026-04-30 12:05 31.34184 121.67887 5720 ft 268 kts 268°
2026-04-30 12:05 31.34029 121.66450 6272 ft 269 kts 259°
2026-04-30 12:06 31.33540 121.63555 7393 ft 273 kts 259°
2026-04-30 12:06 31.33295 121.62108 7930 ft 276 kts 259°
2026-04-30 12:06 31.32924 121.59895 8724 ft 279 kts 259°
2026-04-30 12:06 31.32552 121.57652 9496 ft 282 kts 259°
2026-04-30 12:07 31.32177 121.55382 10194 ft 289 kts 259°
2026-04-30 12:07 31.31640 121.52127 10512 ft 320 kts 259°
2026-04-30 12:07 31.31353 121.50390 10623 ft 336 kts 259°
2026-04-30 12:07 31.30895 121.47624 10863 ft 355 kts 259°
2026-04-30 12:08 31.30264 121.43824 11593 ft 363 kts 259°
2026-04-30 12:08 31.29938 121.41862 11742 ft 364 kts 259°
2026-04-30 12:08 31.29458 121.38958 11806 ft 364 kts 259°
2026-04-30 12:08 31.28841 121.36093 11810 ft 364 kts 250°
2026-04-30 12:09 31.27741 121.33431 11809 ft 364 kts 238°
2026-04-30 12:09 31.25607 121.30415 11809 ft 365 kts 223°
2026-04-30 12:09 31.24317 121.29151 11810 ft 365 kts 219°
2026-04-30 12:09 31.22328 121.27251 11809 ft 365 kts 220°
2026-04-30 12:10 31.20365 121.25367 11809 ft 365 kts 220°
2026-04-30 12:10 31.18431 121.23507 11809 ft 365 kts 220°
2026-04-30 12:10 31.16473 121.21622 11809 ft 365 kts 220°
2026-04-30 12:10 31.14514 121.19739 11809 ft 365 kts 220°
2026-04-30 12:11 31.12544 121.17852 11981 ft 369 kts 220°
2026-04-30 12:11 31.10552 121.15952 12721 ft 370 kts 220°
2026-04-30 12:11 31.08657 121.13910 13377 ft 373 kts 229°
2026-04-30 12:11 31.07131 121.11455 14002 ft 376 kts 240°
2026-04-30 12:12 31.06057 121.08662 14603 ft 379 kts 252°
2026-04-30 12:12 31.05322 121.05697 15250 ft 382 kts 254°
2026-04-30 12:12 31.04588 121.02697 15835 ft 386 kts 254°
2026-04-30 12:12 31.03844 120.99680 16405 ft 389 kts 254°
2026-04-30 12:13 31.03092 120.96640 16957 ft 392 kts 254°
2026-04-30 12:13 31.02330 120.93568 17514 ft 395 kts 254°
2026-04-30 12:13 31.01559 120.90478 18050 ft 399 kts 254°
2026-04-30 12:13 31.00781 120.87366 18579 ft 402 kts 254°
2026-04-30 12:14 30.99995 120.84222 19087 ft 405 kts 254°
2026-04-30 12:14 30.99207 120.81059 19577 ft 408 kts 254°
2026-04-30 12:14 30.98416 120.77874 20058 ft 411 kts 254°
2026-04-30 12:14 30.97619 120.74670 20515 ft 414 kts 254°
2026-04-30 12:15 30.96812 120.71439 20958 ft 416 kts 254°
2026-04-30 12:15 30.96000 120.68192 21387 ft 419 kts 254°
2026-04-30 12:15 30.95178 120.64920 21800 ft 422 kts 253°
2026-04-30 12:15 30.94352 120.61636 22196 ft 424 kts 254°
2026-04-30 12:16 30.93519 120.58327 22585 ft 427 kts 253°
2026-04-30 12:16 30.92683 120.55002 22957 ft 429 kts 254°
2026-04-30 12:16 30.91855 120.51701 23311 ft 431 kts 254°
2026-04-30 12:16 30.90976 120.48353 23658 ft 434 kts 250°
2026-04-30 12:17 30.87932 120.42289 24313 ft 439 kts 229°
2026-04-30 12:17 30.85740 120.39814 24642 ft 441 kts 219°
2026-04-30 12:17 30.83246 120.37715 24954 ft 443 kts 215°
2026-04-30 12:18 30.80717 120.35643 25260 ft 445 kts 216°
2026-04-30 12:18 30.78180 120.33558 25561 ft 447 kts 216°
2026-04-30 12:18 30.75638 120.31463 25843 ft 449 kts 216°
2026-04-30 12:18 30.73081 120.29350 26122 ft 451 kts 216°
2026-04-30 12:19 30.70517 120.27231 26391 ft 453 kts 216°
2026-04-30 12:19 30.67938 120.25109 26648 ft 455 kts 216°
2026-04-30 12:19 30.65352 120.22989 26901 ft 456 kts 216°
2026-04-30 12:19 30.62745 120.20855 27140 ft 458 kts 216°
2026-04-30 12:20 30.60138 120.18726 27369 ft 460 kts 216°
2026-04-30 12:20 30.57514 120.16583 27601 ft 461 kts 216°
2026-04-30 12:20 30.54885 120.14438 27811 ft 463 kts 216°
2026-04-30 12:20 30.52255 120.12289 28090 ft 462 kts 216°
2026-04-30 12:21 30.49629 120.10142 28395 ft 461 kts 216°
2026-04-30 12:21 30.47010 120.08001 28696 ft 461 kts 216°
2026-04-30 12:21 30.44390 120.05864 28983 ft 460 kts 215°
2026-04-30 12:21 30.41668 120.03926 29262 ft 460 kts 210°
2026-04-30 12:22 30.38892 120.02080 29547 ft 459 kts 210°
2026-04-30 12:22 30.36125 120.00236 29820 ft 459 kts 210°
2026-04-30 12:22 30.33356 119.98388 30049 ft 459 kts 210°
2026-04-30 12:22 30.30587 119.96544 30112 ft 460 kts 210°
2026-04-30 12:23 30.25042 119.92854 30110 ft 460 kts 210°
2026-04-30 12:23 30.19488 119.89162 30110 ft 461 kts 210°
2026-04-30 12:24 30.13931 119.85472 30113 ft 461 kts 210°
2026-04-30 12:24 30.08371 119.81779 30105 ft 461 kts 212°
2026-04-30 12:25 30.03493 119.77032 30103 ft 460 kts 229°
2026-04-30 12:25 29.99712 119.71095 30110 ft 459 kts 235°
2026-04-30 12:26 29.96014 119.65084 30109 ft 459 kts 235°
2026-04-30 12:26 29.92303 119.59086 30112 ft 459 kts 234°
2026-04-30 12:27 29.88621 119.53126 30114 ft 459 kts 235°
2026-04-30 12:27 29.84923 119.47126 30096 ft 460 kts 235°
2026-04-30 12:28 29.81214 119.41122 30095 ft 460 kts 234°
2026-04-30 12:28 29.77490 119.35114 30091 ft 461 kts 234°
2026-04-30 12:29 29.73760 119.29102 30097 ft 461 kts 234°
2026-04-30 12:29 29.70027 119.23096 30112 ft 461 kts 234°
2026-04-30 12:30 29.66352 119.17056 30110 ft 461 kts 239°
2026-04-30 12:30 29.63810 119.10321 30113 ft 460 kts 250°
2026-04-30 12:31 29.61635 119.03403 30116 ft 460 kts 250°
2026-04-30 12:31 29.59437 118.96504 30121 ft 460 kts 250°
2026-04-30 12:32 29.57241 118.89616 30117 ft 459 kts 250°
2026-04-30 12:32 29.55054 118.82722 30117 ft 459 kts 250°
2026-04-30 12:33 29.52870 118.75836 30117 ft 459 kts 250°
2026-04-30 12:33 29.50668 118.68953 30112 ft 459 kts 250°
2026-04-30 12:34 29.48460 118.62068 30113 ft 459 kts 250°
2026-04-30 12:34 29.46256 118.55185 30117 ft 459 kts 250°
2026-04-30 12:35 29.44053 118.48308 30111 ft 459 kts 250°
2026-04-30 12:35 29.41837 118.41428 30096 ft 460 kts 250°
2026-04-30 12:36 29.39622 118.34545 30098 ft 460 kts 250°
2026-04-30 12:36 29.37414 118.27699 30095 ft 461 kts 250°
2026-04-30 12:37 29.35174 118.20816 30113 ft 461 kts 250°
2026-04-30 12:37 29.32938 118.13922 30102 ft 462 kts 250°
2026-04-30 12:38 29.30700 118.07031 30114 ft 461 kts 250°
2026-04-30 12:38 29.28454 118.00142 30110 ft 461 kts 250°
2026-04-30 12:39 29.26210 117.93261 30118 ft 461 kts 250°
2026-04-30 12:39 29.23966 117.86393 30123 ft 460 kts 250°
2026-04-30 12:40 29.21719 117.79540 30123 ft 460 kts 250°
2026-04-30 12:40 29.19472 117.72686 30122 ft 459 kts 249°
2026-04-30 12:41 29.17234 117.65887 30121 ft 459 kts 249°
2026-04-30 12:41 29.14981 117.59047 30118 ft 459 kts 249°
2026-04-30 12:42 29.12723 117.52214 30121 ft 459 kts 249°
2026-04-30 12:42 29.10464 117.45386 30119 ft 459 kts 249°
2026-04-30 12:43 29.08203 117.38562 30117 ft 459 kts 249°
2026-04-30 12:43 29.05938 117.31744 30117 ft 459 kts 249°
2026-04-30 12:44 29.03668 117.24931 30117 ft 459 kts 249°
2026-04-30 12:44 29.01394 117.18125 30114 ft 458 kts 249°
2026-04-30 12:45 28.99121 117.11320 30119 ft 458 kts 249°
2026-04-30 12:45 28.96839 117.04522 30117 ft 458 kts 249°
2026-04-30 12:46 28.94555 116.97726 30118 ft 458 kts 249°
2026-04-30 12:46 28.92274 116.90930 30114 ft 458 kts 249°
2026-04-30 12:47 28.89994 116.84139 30112 ft 458 kts 249°
2026-04-30 12:47 28.87703 116.77351 30115 ft 458 kts 249°
2026-04-30 12:48 28.85412 116.70572 30117 ft 458 kts 249°
2026-04-30 12:48 28.83133 116.63836 30114 ft 458 kts 249°
2026-04-30 12:49 28.80835 116.57056 30114 ft 458 kts 249°
2026-04-30 12:49 28.78533 116.50285 30112 ft 458 kts 249°
2026-04-30 12:50 28.76221 116.43515 30114 ft 458 kts 249°
2026-04-30 12:50 28.73906 116.36747 30119 ft 458 kts 249°
2026-04-30 12:51 28.71591 116.29981 30115 ft 458 kts 249°
2026-04-30 12:51 28.69668 116.24366 30117 ft 458 kts 249°
2026-04-30 12:52 28.66973 116.16495 30118 ft 458 kts 249°
2026-04-30 12:52 28.64649 116.09738 30116 ft 458 kts 249°
2026-04-30 12:53 28.62323 116.02984 30115 ft 458 kts 249°
2026-04-30 12:53 28.60369 115.97331 30114 ft 458 kts 249°
2026-04-30 12:54 28.58036 115.90578 30116 ft 458 kts 249°
2026-04-30 12:54 28.55717 115.83879 30117 ft 458 kts 249°
2026-04-30 12:55 28.53377 115.77132 30118 ft 458 kts 249°
2026-04-30 12:55 28.51037 115.70390 30113 ft 458 kts 249°
2026-04-30 12:56 28.48799 115.63610 30113 ft 458 kts 255°
2026-04-30 12:56 28.47676 115.56493 30112 ft 458 kts 261°
2026-04-30 12:57 28.46685 115.49346 30112 ft 458 kts 261°
2026-04-30 12:57 28.45681 115.42196 30114 ft 458 kts 261°
2026-04-30 12:58 28.44681 115.35048 30115 ft 458 kts 261°
2026-04-30 12:58 28.43678 115.27900 30118 ft 458 kts 261°
2026-04-30 12:59 28.42666 115.20750 30113 ft 458 kts 261°
2026-04-30 12:59 28.41650 115.13606 30116 ft 458 kts 261°
2026-04-30 13:00 28.40636 115.06459 30113 ft 458 kts 261°
2026-04-30 13:00 28.39617 114.99314 30115 ft 458 kts 261°
2026-04-30 13:01 28.38600 114.92218 30113 ft 458 kts 261°
2026-04-30 13:01 28.37576 114.85073 30119 ft 458 kts 261°
2026-04-30 13:02 28.36542 114.77936 30114 ft 458 kts 261°
2026-04-30 13:02 28.35500 114.70795 30117 ft 458 kts 261°
2026-04-30 13:03 28.34459 114.63657 30116 ft 458 kts 261°
2026-04-30 13:03 28.33413 114.56515 30116 ft 458 kts 261°
2026-04-30 13:04 28.32363 114.49372 30114 ft 459 kts 261°
2026-04-30 13:04 28.31317 114.42224 29665 ft 458 kts 261°
2026-04-30 13:05 28.30811 114.38638 28479 ft 463 kts 263°
2026-04-30 13:05 28.30656 114.34975 27242 ft 468 kts 271°
2026-04-30 13:05 28.30779 114.31272 25995 ft 471 kts 272°
2026-04-30 13:06 28.31021 114.23841 23840 ft 467 kts 272°
2026-04-30 13:06 28.31131 114.20177 22970 ft 462 kts 272°
2026-04-30 13:06 28.31239 114.16562 22138 ft 456 kts 272°
2026-04-30 13:06 28.31345 114.12980 21341 ft 451 kts 272°
2026-04-30 13:07 28.31450 114.09444 20562 ft 446 kts 272°
2026-04-30 13:07 28.31350 114.05995 19807 ft 442 kts 263°
2026-04-30 13:07 28.30761 114.02598 19057 ft 437 kts 256°
2026-04-30 13:07 28.30045 113.99264 18334 ft 432 kts 256°
2026-04-30 13:08 28.29340 113.95969 17640 ft 428 kts 256°
2026-04-30 13:08 28.28644 113.92704 16959 ft 423 kts 256°
2026-04-30 13:08 28.27958 113.89481 16336 ft 417 kts 256°
2026-04-30 13:08 28.27282 113.86303 15744 ft 412 kts 256°
2026-04-30 13:09 28.26611 113.83164 15159 ft 407 kts 256°
2026-04-30 13:09 28.25947 113.80064 14599 ft 402 kts 256°
2026-04-30 13:09 28.25290 113.77003 14030 ft 397 kts 256°
2026-04-30 13:09 28.24647 113.73968 13449 ft 393 kts 258°
2026-04-30 13:10 28.24312 113.70914 12849 ft 389 kts 268°
2026-04-30 13:10 28.24414 113.67865 12169 ft 386 kts 274°
2026-04-30 13:10 28.24594 113.64827 11446 ft 385 kts 274°
2026-04-30 13:10 28.25072 113.61884 11036 ft 375 kts 291°
2026-04-30 13:11 28.26378 113.59425 10903 ft 358 kts 312°
2026-04-30 13:11 28.28304 113.57759 10780 ft 343 kts 334°
2026-04-30 13:11 28.30515 113.57046 10648 ft 330 kts 354°
2026-04-30 13:11 28.32761 113.57111 10529 ft 317 kts
2026-04-30 13:12 28.34925 113.57259 10401 ft 305 kts 360°
2026-04-30 13:12 28.36949 113.56827 10235 ft 293 kts 334°
2026-04-30 13:12 28.38546 113.55466 9983 ft 286 kts 308°
2026-04-30 13:13 28.39643 113.51199 9151 ft 288 kts 272°
2026-04-30 13:13 28.39734 113.48942 8790 ft 285 kts 273°
2026-04-30 13:13 28.40025 113.44476 8010 ft 282 kts 275°
2026-04-30 13:14 28.40229 113.42250 7376 ft 288 kts 276°
2026-04-30 13:14 28.40447 113.39943 6653 ft 298 kts 276°
2026-04-30 13:14 28.40868 113.35408 6242 ft 277 kts 276°
2026-04-30 13:15 28.40950 113.33278 6058 ft 266 kts 267°
2026-04-30 13:15 28.40760 113.28930 4600 ft 286 kts 267°
2026-04-30 13:15 28.40656 113.26669 4231 ft 281 kts 267°
2026-04-30 13:16 28.40557 113.24509 4105 ft 267 kts 267°
2026-04-30 13:16 28.40344 113.22471 3895 ft 256 kts 250°
2026-04-30 13:16 28.39300 113.20927 3708 ft 246 kts 212°
2026-04-30 13:17 28.36160 113.21096 3176 ft 235 kts 154°
2026-04-30 13:17 28.34619 113.21574 2883 ft 228 kts 182°
2026-04-30 13:17 28.31495 113.21582 2284 ft 223 kts 178°
2026-04-30 13:18 28.29951 113.21683 1999 ft 222 kts 178°
2026-04-30 13:18 28.26959 113.21870 1424 ft 204 kts 178°
2026-04-30 13:18 28.25596 113.21954 1158 ft 188 kts 178°
2026-04-30 13:19 28.24367 113.22030 940 ft 166 kts 178°
2026-04-30 13:19 28.23269 113.22097 722 ft 151 kts 178°
2026-04-30 13:19 28.22262 113.22161 502 ft 143 kts 177°
2026-04-30 13:19 28.21278 113.22226 336 ft 141 kts 176°
2026-04-30 13:20 28.20313 113.22271 223 ft 131 kts 173°
2026-04-30 13:20 28.19589 113.22327 218 ft 65 kts 177°
2026-04-30 13:20 28.19388 113.22336 214 ft 16 kts 180°
2026-04-30 13:20 28.19270 113.22321 216 ft 18 kts 194°
2026-04-30 13:21 28.19157 113.22271 216 ft 18 kts 205°
2026-04-30 13:21 28.19039 113.22218 217 ft 19 kts 204°
2026-04-30 13:21 28.18947 113.22177 217 ft 14 kts 192°
2026-04-30 13:22 28.18753 113.22183 215 ft 14 kts 178°
2026-04-30 13:22 28.18662 113.22188 215 ft 13 kts 176°
2026-04-30 13:22 28.18495 113.22198 215 ft 14 kts 177°
2026-04-30 13:23 28.18385 113.22205 215 ft 18 kts 176°
2026-04-30 13:23 28.18099 113.22222 214 ft 23 kts 178°
2026-04-30 13:24 28.17828 113.22240 218 ft 10 kts 178°
2026-04-30 13:24 28.17762 113.22156 214 ft 7 kts 266°
2026-04-30 13:25 28.17741 113.21947 215 ft 19 kts 267°
2026-04-30 13:25 28.17917 113.21851 214 ft 18 kts 356°
2026-04-30 13:26 28.18346 113.21823 214 ft 23 kts 357°
2026-04-30 13:26 28.18584 113.21810 218 ft 11 kts 357°
2026-04-30 13:27 28.18721 113.21801 214 ft 8 kts 356°
2026-04-30 13:28 28.18892 113.21698 222 ft 9 kts 302°
2026-04-30 13:28 28.18985 113.21673 214 ft 6 kts 356°
2026-04-30 13:28 28.19021 113.21671 214 ft 5 kts 353°
2026-04-30 13:29 28.19041 113.21620 214 ft 3 kts 266°
2026-04-30 13:29 28.19040 113.21587 214 ft 0 kts 267°